Location: Elaine Barite Prospect
(34.1431°N, 106.7922°W)
Time: 08:31:48
(UTC+00:00)

Cosmos 1626 Rocket - Pass Details

Date: 13 December 2025
Orbit: 596 x 625 km, 82.5° (Epoch: 15 January)

Event Time Altitude Azimuth Distance (km) Brightness Sun altitude
Rises 12:57:19 0° 201° (SSW) 2,889 7.0 -13.6°
Reaches altitude 10° 12:59:38 10° 208° (SSW) 1,985 6.1 -13.1°
Maximum altitude 13:03:49 42° 280° (W) 892 3.9 -12.3°
Drops below altitude 10° 13:07:59 10° 351° (N) 1,986 5.9 -11.5°
Sets 13:10:19 0° 359° (N) 2,891 6.8 -11.1°
